Have a Safe July 4th! 

Flight Track Log - Related Links

Times and Time Zones

All times are in EDT time to prevent confusion due to time zone crossing. See the UAL3740 flight status page for this flight to view local times or setup timezone preferences in your user account.

Time Position Orientation Groundspeed Altitude Reporting Facility
EDT Latitude Longitude Course Direction KTS MPH feet Rate Location/Type
Sat 08:37:31 AM 38.9667 -77.5333 322° Northwest 193 222 2,600  Level Potomac TRACON
Sat 08:38:31 AM 39.0167 -77.5833 322° Northwest 276 318 4,400 2,579 Climbing Potomac TRACON
Sat 08:39:32 AM 39.0833 -77.5500 21° North 260 299 7,800 2,826 Climbing Potomac TRACON
Sat 08:40:32 AM 39.1500 -77.5000 30° Northeast 284 327 10,100 742 Climbing Potomac TRACON
Sat 08:42:38 AM 39.1497 -77.2750 90° East 308 354 10,100  Level Washington Center
Sat 08:43:39 AM 39.1156 -77.1728 113° Southeast 303 349 10,100 1,109 Level Washington Center
Sat 08:44:37 AM 39.0817 -77.0650 112° Southeast 308 354 12,300 2,186 Climbing Washington Center
Sat 08:45:37 AM 39.0892 -76.9475 85° East 313 360 14,400 2,182 Climbing Washington Center
Sat 08:46:38 AM 39.1008 -76.8247 83° East 318 366 16,700 1,820 Climbing Washington Center
Sat 08:47:39 AM 39.1125 -76.6992 83° East 333 383 18,100 1,339 Climbing Washington Center
Sat 08:48:39 AM 39.1242 -76.5628 84° East 358 412 19,400 1,100 Climbing Washington Center
Sat 08:49:39 AM 39.1378 -76.4211 83° East 381 438 20,300 1,059 Climbing Washington Center
Sat 08:50:38 AM 39.1511 -76.2714 83° East 404 465 21,500 1,059 Climbing Washington Center
Sat 08:51:38 AM 39.1686 -76.1350 81° East 416 479 22,400 744 Climbing Washington Center
Sat 08:52:39 AM 39.1836 -75.9797 83° East 428 493 23,000 298 Climbing Washington Center
Sat 08:53:39 AM 39.2258 -75.8328 70° East 433 498 23,000 347 Level Washington Center
Sat 08:54:40 AM 39.3133 -75.7231 44° Northeast 413 475 23,700 1,068 Climbing Washington Center
Sat 08:55:37 AM 39.3989 -75.6131 45° Northeast 422 486 25,100 1,385 Climbing Washington Center
Sat 08:56:37 AM 39.4844 -75.5056 44° Northeast 422 486 26,400 1,313 Climbing Washington Center
Sat 08:58:17 AM 39.6342 -75.3158 44° Northeast 422 486 28,600 1,193 Climbing New York Center
Sat 08:59:18 AM 39.7133 -75.2019 48° Northeast 417 480 29,600 1,140 Climbing New York Center
Sat 09:00:18 AM 39.7908 -75.0853 49° Northeast 422 486 30,900 1,190 Climbing New York Center
Sat 09:01:19 AM 39.8742 -74.9661 48° Northeast 427 491 32,000 1,041 Climbing New York Center
Sat 09:02:19 AM 39.9489 -74.8569 48° Northeast 427 491 33,000 504 Climbing New York Center
Sat 09:03:18 AM 40.0156 -74.7414 53° Northeast 432 497 33,000  Level New York Center
Sat 09:04:19 AM 40.0725 -74.5928 63° Northeast 438 504 33,000  Level New York Center
Sat 09:05:17 AM 40.1272 -74.4439 64° Northeast 443 510 33,000  Level New York Center
Sat 09:06:20 AM 40.1842 -74.2919 64° Northeast 455 524 33,000 -738 Level New York Center
Sat 09:08:32 AM 40.3144 -73.9586 63° Northeast 454 522 30,600 -1,219 Descending Boston Center
Sat 09:09:32 AM 40.3706 -73.8128 63° Northeast 449 517 29,100 -1,500 Descending Boston Center
Sat 09:10:32 AM 40.4222 -73.6639 65° Northeast 444 511 27,600 -1,050 Descending Boston Center
Sat 09:11:32 AM 40.4758 -73.5206 64° Northeast 444 511 27,000 -300 Descending Boston Center
Sat 09:12:32 AM 40.5272 -73.3767 65° Northeast 439 505 27,000 -750 Level Boston Center
Sat 09:13:32 AM 40.5803 -73.2325 64° Northeast 433 498 25,500 -1,750 Descending Boston Center
Sat 09:14:32 AM 40.6356 -73.0908 63° Northeast 433 498 23,500 -1,700 Descending Boston Center
Sat 09:15:32 AM 40.6736 -72.9819 65° Northeast 420 483 22,100 -1,850 Descending Boston Center
Sat 09:16:32 AM 40.7408 -72.8072 63° Northeast 415 478 19,800 -2,050 Descending Boston Center
Sat 09:17:32 AM 40.7892 -72.6786 64° Northeast 405 466 18,000 -1,600 Descending Boston Center
Sat 09:18:32 AM 40.8331 -72.5417 67° East 400 460 16,600 -1,450 Descending Boston Center
Sat 09:19:32 AM 40.8792 -72.4153 64° Northeast 394 453 15,100 -1,500 Descending Boston Center
Sat 09:20:32 AM 40.9228 -72.2944 64° Northeast 376 433 13,600 -1,523 Descending Boston Center
Sat 09:21:42 AM 40.9725 -72.1542 65° Northeast 365 420 11,800 -1,191 Descending Boston Center
Sat 09:22:43 AM 41.0139 -72.0331 66° East 359 413 11,000 -787 Descending Boston Center
Sat 09:23:44 AM 41.0739 -71.9389 50° Northeast 360 414 10,200 -496 Descending Boston Center
Sat 09:24:44 AM 41.1589 -71.8750 30° Northeast 348 400 10,000 -99 Descending Boston Center
Sat 09:25:45 AM 41.2419 -71.8133 29° Northeast 340 391 10,000 -590 Level Boston Center
Sat 09:26:46 AM 41.3083 -71.7631 30° Northeast 272 313 8,800 -1,574 Descending Boston Center
Sat 09:27:47 AM 41.3728 -71.7153 29° Northeast 256 295 6,800 -1,820 Descending Boston Center
Sat 09:28:48 AM 41.4328 -71.6675 31° Northeast 246 283 5,100 -1,289 Descending Boston Center
Sat 09:29:48 AM 41.4847 -71.6283 29° Northeast 227 261 4,200 -1,190 Descending Boston Center
Sat 09:30:49 AM 41.5406 -71.5831 31° Northeast 232 267 2,700 -1,033 Descending Boston Center
Sat 09:31:50 AM 41.5903 -71.5436 31° Northeast 207 238 2,100 -295 Descending Boston Center
Sat 09:32:51 AM 41.6317 -71.5042 35° Northeast 164 189 2,100 -393 Level Boston Center
Sat 09:33:52 AM 41.6628 -71.4786 32° Northeast 131 151 1,300 -738 Descending Boston Center
Sat 09:34:53 AM 41.6936 -71.4503 34° Northeast 137 158 600 -689 Descending Boston Center
Sat 09:36:00 AM 41.7167 -71.4167 31° Northeast  Level FlightAware Approximate

Login

Don't have an account? Register now (free) for customized features, flight alerts, and more!